Regional Weather Roundup
Issued by NWS

Home | Current Version | Previous Version | Graphics & Text | Print | Product List | Glossary On
Versions: 1 2 3 4 5 6 7 8 9 10 11 12 13 14 15 16 17 18 19 20 21 22 23 24 25 26 27 28 29 30 31 32 33 34 35 36 37 38 39 40 41 42 43 44 45 46 47 48 49 50
000
ASUS45 KSLC 221310
RWRUT

UTAH REGIONAL WEATHER ROUNDUP
NATIONAL WEATHER SERVICE SALT LAKE CITY UT
700 AM MDT TUE JUL 22 2014

UTZ001>011-023>025-221400-

NORTHERN UTAH

CITY           SKY/WX    TMP DP  RH WIND       PRES   REMARKS
HILL AFB       CLEAR     67  40  38 E20       30.22R
LOGAN          NOT AVBL
OGDEN          CLEAR     68  40  35 S12       30.19R
PROVO AIRPORT  NOT AVBL
SALT LAKE CITY MOCLDY    66  46  48 S5        30.18R
VERNAL         CLEAR     58  36  43 W5        30.29R
WENDOVER       PTCLDY    66  48  52 CALM      30.20S
HEBER CITY     CLEAR     50  37  62 CALM      30.32S
WEST JORDAN    PTCLDY    70  43  37 CALM      30.21S

$$

UTZ012>022-026-027-221400-

SOUTHERN UTAH

CITY           SKY/WX    TMP DP  RH WIND       PRES   REMARKS
BRYCE CANYON   PTCLDY    43  28  55 W9        30.46S
CEDAR CITY     PTCLDY    51  29  42 CALM      30.29R
MILFORD        CLEAR     57  32  38 S8        30.25R
MOAB/CYNLANDS  CLEAR     64  20  18 CALM      30.20R
PRICE          CLEAR     64  24  21 NE3       30.31R
ST GEORGE      SUNNY     72  25  17 S6        30.13R
KANAB            N/A     54  30  40 NE5       30.30R

$$

REGIONAL REPORTS     COLORADO/ARIZONA

CITY           SKY/WX    TMP DP  RH WIND       PRES   REMARKS
CRAIG, CO      CLEAR     42  42 100 W3        30.38R
GRAND JUNCTION CLEAR     63  29  27 SE12      30.27R
RIFLE          CLEAR     56  38  50 CALM      30.35R
MONTROSE       CLEAR     63  35  35 SE6       30.36R
CORTEZ         CLEAR     52  36  54 E5        30.34R
PAGE, AZ       CLEAR     71  27  19 SE3       30.20R
GRAND CANYON   CLEAR     46  34  62 CALM      30.39R
KINGMAN        CLEAR     72  39  30 SE12      30.12S
FLAGSTAFF      CLEAR     51  36  56 CALM      30.41R

$$

REGIONAL REPORTS    NEVADA/IDAHO/WYOMING

CITY           SKY/WX    TMP DP  RH WIND       PRES   REMARKS
LAS VEGAS, NV  CLEAR     80  33  18 S9        29.97R
ELY            CLEAR     49  32  52 S3        30.33R
ELKO           PTCLDY    53  50  89 CALM      30.25R
POCATELLO, ID  CLEAR     58  53  84 CALM      30.23S
BURLEY         CLEAR     57  54  89 CALM      30.20R
EVANSTON, WY   CLEAR     56  36  47 NE3       30.41R
ROCK SPRINGS   CLEAR     61  33  35 CALM      30.39R

$$



USA.gov is the U.S. government's official web portal to all federal, state and local government web resources and services.